Zurück zum Katalog

BEIJING 1

TSINGHUA

AktivWissenschaftSSO
NORAD 28890·PAYLOAD·🇨🇳 China

Gestartet Oct 27, 2005 von Plesetsk Cosmodrome

Loading…

Nächste Überflüge (nächste 24 Stunden)

TLE

AktuellSource: Space-Track

Epoche: Sep 14, 2026, 15:26 UTC

1 28890U 05043A   26257.64349325  .00000278  00000-0  63077-4 0  9991
2 28890  98.3044  31.4178 0014813   7.0780 353.0628 14.63576788113737

Verfolge BEIJING 1 in Echtzeit mit AllMySat

Download on the App Store